| time (UTC) | temp F | wind direction | speed MPH | gust MPH | rain 1hr in | rain 24hr in | rain mn in | humidity % | barometer mb |
| 20260505211511 | 63 | 221 | 8.0 | 15.0 | 0.00 | 0.03 | 0.03 | 68 | 1014.9 |
| 20260505210011 | 63 | 207 | 7.0 | 15.0 | 0.00 | 0.03 | 0.03 | 67 | 1014.9 |
| 20260505204508 | 63 | 212 | 7.0 | 11.0 | 0.00 | 0.03 | 0.03 | 67 | 1014.9 |
| 20260505203006 | 62 | 229 | 10.0 | 15.0 | 0.00 | 0.03 | 0.03 | 67 | 1014.9 |
| 20260505201507 | 63 | 235 | 6.0 | 13.0 | 0.00 | 0.03 | 0.03 | 68 | 1014.9 |
| 20260505200005 | 63 | 267 | 7.0 | 12.0 | 0.00 | 0.03 | 0.03 | 67 | 1015.0 |
| 20260505194502 | 63 | 207 | 6.0 | 10.0 | 0.00 | 0.03 | 0.03 | 65 | 1015.1 |
| 20260505193001 | 63 | 206 | 5.0 | 12.0 | 0.00 | 0.03 | 0.03 | 67 | 1015.2 |
| 20260505191611 | 63 | 196 | 6.0 | 11.0 | 0.00 | 0.03 | 0.03 | 67 | 1015.3 |
| 20260505190057 | 62 | 209 | 6.0 | 10.0 | 0.00 | 0.03 | 0.03 | 67 | 1015.5 |
| 20260505184554 | 62 | 250 | 4.0 | 11.0 | 0.00 | 0.03 | 0.03 | 68 | 1015.4 |
| 20260505183053 | 61 | 257 | 9.0 | 15.0 | 0.00 | 0.03 | 0.03 | 69 | 1015.4 |
| 20260505181551 | 61 | 195 | 6.0 | 12.0 | 0.00 | 0.03 | 0.03 | 71 | 1015.3 |
| 20260505180052 | 61 | 240 | 5.0 | 14.0 | 0.00 | 0.03 | 0.03 | 72 | 1015.4 |
| 20260505174547 | 61 | 248 | 9.0 | 14.0 | 0.00 | 0.03 | 0.03 | 71 | 1015.1 |
| 20260505173044 | 61 | 240 | 7.0 | 13.0 | 0.00 | 0.03 | 0.03 | 70 | 1015.1 |
| 20260505171545 | 61 | 249 | 7.0 | 14.0 | 0.00 | 0.03 | 0.03 | 72 | 1014.9 |
| 20260505170100 | 61 | 272 | 7.0 | 11.0 | 0.00 | 0.03 | 0.03 | 73 | 1014.7 |
| 20260505164541 | 60 | 267 | 8.0 | 12.0 | 0.00 | 0.03 | 0.03 | 72 | 1014.7 |
| 20260505163037 | 60 | 242 | 7.0 | 10.0 | 0.00 | 0.03 | 0.03 | 73 | 1014.4 |
| 20260505161535 | 60 | 244 | 5.0 | 13.0 | 0.00 | 0.03 | 0.03 | 74 | 1014.3 |
| 20260505153036 | 60 | 269 | 6.0 | 11.0 | 0.00 | 0.03 | 0.03 | 74 | 1014.2 |
| 20260505151540 | 60 | 221 | 5.0 | 11.0 | 0.00 | 0.03 | 0.03 | 73 | 1014.1 |
| 20260505124513 | 58 | 269 | 2.0 | 4.0 | 0.00 | 0.03 | 0.03 | 80 | 1013.5 |
| 20260505123012 | 58 | 280 | 2.0 | 4.0 | 0.00 | 0.03 | 0.03 | 80 | 1013.5 |
| 20260505121514 | 58 | 262 | 1.0 | 4.0 | 0.00 | 0.03 | 0.03 | 81 | 1013.4 |
| 20260505120012 | 58 | 295 | 3.0 | 7.0 | 0.00 | 0.03 | 0.03 | 81 | 1013.3 |
| 20260505114514 | 58 | 300 | 2.0 | 4.0 | 0.00 | 0.03 | 0.03 | 82 | 1013.2 |
| 20260505113016 | 58 | 317 | 2.0 | 5.0 | 0.00 | 0.03 | 0.03 | 81 | 1013.3 |
| 20260505111508 | 58 | 247 | 0.0 | 1.0 | 0.00 | 0.03 | 0.03 | 82 | 1013.4 |
| 20260505101503 | 57 | 304 | 1.0 | 3.0 | 0.01 | 0.03 | 0.03 | 88 | 1013.4 |
| 20260505100002 | 56 | 257 | 2.0 | 5.0 | 0.01 | 0.03 | 0.03 | 90 | 1013.6 |
| 20260505094557 | 57 | 241 | 3.0 | 5.0 | 0.01 | 0.02 | 0.02 | 92 | 1013.8 |
| 20260505093057 | 56 | 101 | 0.0 | 1.0 | 0.02 | 0.02 | 0.02 | 91 | 1013.8 |
| 20260505091552 | 57 | 31 | 0.0 | 1.0 | 0.02 | 0.02 | 0.02 | 91 | 1014.0 |
| 20260505084552 | 57 | 227 | 1.0 | 3.0 | 0.01 | 0.01 | 0.01 | 89 | 1014.3 |
| 20260505083056 | 57 | 107 | 0.0 | 3.0 | 0.00 | 0.00 | 0.00 | 89 | 1014.4 |
| 20260505081548 | 57 | 96 | 1.0 | 3.0 | 0.00 | 0.00 | 0.00 | 86 | 1014.4 |
| 20260505080043 | 58 | 153 | 1.0 | 4.0 | 0.00 | 0.00 | 0.00 | 85 | 1014.6 |
| 20260505074541 | 58 | 74 | 1.0 | 3.0 | 0.00 | 0.00 | 0.00 | 85 | 1014.7 |
| 20260505073041 | 58 | 127 | 1.0 | 2.0 | 0.00 | 0.00 | 0.00 | 84 | 1014.7 |
| 20260505071538 | 58 | 88 | 1.0 | 3.0 | 0.00 | 0.00 | 0.00 | 84 | 1014.7 |
| 20260505070042 | 58 | 95 | 1.0 | 3.0 | 0.00 | 0.00 | 0.00 | 84 | 1014.7 |
| 20260505064534 | 58 | 93 | 3.0 | 5.0 | 0.00 | 0.00 | 0.00 | 84 | 1014.8 |
| 20260505063039 | 58 | 94 | 2.0 | 5.0 | 0.00 | 0.00 | 0.00 | 85 | 1014.7 |
| 20260505061539 | 58 | 145 | 2.0 | 5.0 | 0.00 | 0.00 | 0.00 | 86 | 1014.8 |
| 20260505060034 | 59 | 118 | 2.0 | 7.0 | 0.00 | 0.00 | 0.00 | 85 | 1014.9 |
| 20260505054538 | 59 | 92 | 2.0 | 3.0 | 0.00 | 0.00 | 0.00 | 83 | 1014.9 |
| 20260505053040 | 59 | 144 | 1.0 | 2.0 | 0.00 | 0.00 | 0.00 | 83 | 1014.8 |
| 20260505051534 | 59 | 136 | 1.0 | 2.0 | 0.00 | 0.00 | 0.00 | 82 | 1015.0 |
| 20260505041526 | 59 | 196 | 2.0 | 5.0 | 0.00 | 0.00 | 0.00 | 84 | 1015.1 |
| 20260505040026 | 59 | 207 | 2.0 | 4.0 | 0.00 | 0.00 | 0.00 | 84 | 1015.1 |
| 20260505034525 | 58 | 211 | 2.0 | 6.0 | 0.00 | 0.00 | 0.00 | 85 | 1015.0 |
| 20260505033032 | 58 | 206 | 2.0 | 8.0 | 0.00 | 0.00 | 0.00 | 87 | 1014.9 |
| 20260505031524 | 58 | 151 | 6.0 | 9.0 | 0.00 | 0.00 | 0.00 | 87 | 1014.9 |
| 20260505030122 | 58 | 158 | 5.0 | 10.0 | 0.00 | 0.00 | 0.00 | 87 | 1014.8 |
| 20260505024519 | 58 | 236 | 6.0 | 8.0 | 0.00 | 0.00 | 0.00 | 85 | 1014.8 |
| 20260505023017 | 58 | 144 | 5.0 | 9.0 | 0.00 | 0.00 | 0.00 | 84 | 1014.8 |
| 20260505021515 | 59 | 153 | 6.0 | 8.0 | 0.00 | 0.00 | 0.00 | 83 | 1014.9 |
| 20260505020014 | 59 | 234 | 3.0 | 8.0 | 0.00 | 0.00 | 0.00 | 83 | 1015.0 |
| 20260505014515 | 60 | 186 | 7.0 | 15.0 | 0.00 | 0.00 | 0.00 | 81 | 1014.8 |
| 20260505013011 | 60 | 162 | 7.0 | 14.0 | 0.00 | 0.00 | 0.00 | 79 | 1014.6 |
| 20260505011514 | 61 | 214 | 8.0 | 16.0 | 0.00 | 0.00 | 0.00 | 77 | 1014.6 |
| 20260505010010 | 63 | 214 | 9.0 | 15.0 | 0.00 | 0.00 | 0.00 | 74 | 1014.6 |
| 20260505004523 | 62 | 211 | 7.0 | 13.0 | 0.00 | 0.00 | 0.00 | 75 | 1014.6 |
| 20260505003008 | 61 | 253 | 11.0 | 17.0 | 0.00 | 0.00 | 0.00 | 74 | 1014.6 |
| 20260505001507 | 62 | 229 | 10.0 | 17.0 | 0.00 | 0.00 | 0.00 | 74 | 1014.6 |
| 20260505000006 | 62 | 233 | 9.0 | 16.0 | 0.00 | 0.00 | 0.00 | 74 | 1014.6 |
| 20260504234503 | 62 | 242 | 13.0 | 20.0 | 0.00 | 0.00 | 0.00 | 75 | 1014.6 |
| 20260504233002 | 62 | 243 | 12.0 | 20.0 | 0.00 | 0.00 | 0.00 | 72 | 1014.5 |
| 20260504231506 | 63 | 236 | 14.0 | 20.0 | 0.00 | 0.00 | 0.00 | 72 | 1014.4 |
| 20260504230101 | 63 | 258 | 10.0 | 20.0 | 0.00 | 0.00 | 0.00 | 72 | 1014.4 |
| 20260504224607 | 63 | 225 | 11.0 | 18.0 | 0.00 | 0.00 | 0.00 | 71 | 1014.7 |
| 20260504223056 | 64 | 238 | 9.0 | 18.0 | 0.00 | 0.00 | 0.00 | 69 | 1014.8 |
| 20260504221603 | 63 | 246 | 11.0 | 18.0 | 0.00 | 0.00 | 0.00 | 72 | 1015.1 |
| 20260504220053 | 64 | 270 | 7.0 | 16.0 | 0.00 | 0.00 | 0.00 | 75 | 1015.3 |
| 20260504214553 | 64 | 205 | 7.0 | 15.0 | 0.00 | 0.00 | 0.00 | 74 | 1015.4 |
| 20260504213055 | 63 | 234 | 10.0 | 17.0 | 0.00 | 0.00 | 0.00 | 75 | 1015.6 |